[[{"header":{"parameterUnit":"m.s-1","parameterCategory":1,"la1":30.2991,"la2":30.254,"lo1":-89.0895,"lo2":-89.0444,"dy":0.0017,"dx":0.0017,"nx":28,"ny":28,"refTime":"2023-10-09T09:00:00:Z","depth":0,"parameterNumber":2,"parameterNumberName":"U-component_of_WINDS"},"data":[0,0,0,0,0,0,0,0,0,0,0,0,0,0,0,0,0,0,0,0,0,0,0,0,0,0,0,0,0,0,0,0,0,0,0,0,0,0,0,0,0,0,0,0,0,0,0,0,0,0,0,0,0,0,0,0,0,0,-0.9847,-0.9847,0,-0.9788,-0.9787,-0.9787,-0.9735,-0.9734,-0.9734,-0.9733,-0.9671,-0.967,-0.9669,0,0,0,0,0,0,0,0,0,0,0,0,0,-0.9915,-0.9914,-0.9847,-0.9846,-0.9846,-0.9788,-0.9787,-0.9787,-0.9735,-0.9734,-0.9733,-0.9733,-0.9672,-0.967,-0.9669,0,0,0,0,0,0,0,0,0,0,0,0,0,-0.9874,-0.9914,-0.9847,-0.9813,-0.9809,-0.9788,-0.9787,-0.9786,-0.9735,-0.9734,-0.9733,-0.9732,-0.9672,-0.967,-0.9669,-0.9677,0,0,-0.9664,-0.9663,0,0,0,0,0,0,0,0,-0.9876,-0.9871,-0.9819,-0.9815,-0.9811,-0.9768,-0.9789,-0.975,-0.9735,-0.9763,-0.9733,-0.9732,-0.9704,-0.97,-0.9691,-0.9674,-0.9671,-0.9664,-0.9663,-0.9662,-0.9662,0,0,0,0,0,0,0,-0.9879,-0.9874,-0.9824,-0.9818,-0.9813,-0.9801,-0.9794,-0.9781,-0.9739,-0.9761,-0.9757,-0.9751,-0.9702,-0.9692,-0.9689,-0.967,-0.9664,-0.9662,-0.9661,-0.9661,-0.9659,-0.966,0,0,0,0,0,0,-0.9887,-0.9876,-0.9826,-0.9822,-0.9842,-0.98,-0.9792,-0.9783,-0.9739,-0.9732,-0.9751,-0.9748,-0.9696,-0.9691,-0.9686,-0.9694,-0.9662,-0.966,-0.966,-0.9658,-0.9659,-0.966,0,0,0,0,0,0,-0.9889,-0.9883,-0.9828,-0.9848,-0.984,-0.98,-0.9789,-0.9782,-0.9772,-0.9732,-0.9725,-0.9749,-0.9695,-0.9689,-0.968,-0.9691,-0.966,-0.9658,-0.9657,-0.9658,-0.9659,-0.9708,0,0,0,0,0,0,-0.9891,-0.9884,-0.9887,-0.9849,-0.9839,-0.9823,-0.979,-0.9782,-0.977,-0.9765,-0.9728,-0.9721,-0.9693,-0.9683,-0.9678,-0.9688,-0.9657,-0.9655,-0.9657,-0.9659,-0.9706,-0.9711,-0.9716,0,0,0,0,0,-0.9894,-0.9902,-0.9887,-0.9881,-0.9842,-0.9823,-0.9818,-0.9786,-0.9771,-0.9773,-0.9748,-0.9723,-0.9691,-0.9682,-0.9677,-0.9686,-0.9655,-0.9657,-0.9659,-0.9703,-0.971,-0.9716,0,0,0,0,0,0,-0.9942,-0.9896,-0.9879,-0.9876,-0.9854,-0.9815,-0.9817,-0.9794,-0.9776,-0.9773,-0.9733,-0.9725,-0.9722,-0.9703,-0.9694,-0.9693,-0.9669,-0.967,-0.9705,-0.9711,-0.9716,-0.9721,-0.9656,0,0,0,0,0,-0.9952,-0.9941,-0.9902,-0.9903,-0.9893,-0.9857,-0.9848,-0.9825,-0.9801,-0.9791,-0.9765,-0.9742,-0.9727,-0.9718,-0.9702,-0.9703,-0.9695,-0.9707,-0.9712,-0.9717,-0.9718,-0.9719,-0.9724,-0.9667,-0.9667,-0.9667,0,0,-0.9973,-0.9947,-0.9942,-0.9912,-0.9892,-0.9883,-0.9849,-0.984,-0.9832,-0.979,-0.978,-0.9761,-0.9733,-0.9729,-0.9727,-0.9714,-0.9732,-0.9719,-0.9723,-0.9722,-0.9721,-0.9727,-0.9732,-0.9668,-0.9668,-0.9668,0,0,-1.0006,-0.9985,-0.9984,-0.9965,-0.9937,-0.9913,-0.9913,-0.9878,-0.9863,-0.9853,-0.9822,-0.9812,-0.9787,-0.9768,-0.9756,-0.9785,-0.9761,-0.978,-0.9808,-0.9809,-0.9813,-0.9817,-0.9829,-0.9833,-0.9782,-0.9782,-0.9782,0,-1.0035,-1.0019,-0.9986,-0.9979,-0.9967,-0.9929,-0.9928,-0.9912,-0.9879,-0.9872,-0.9858,-0.9827,-0.9805,-0.9798,-0.9805,-0.9796,-0.9795,-0.9784,-0.9816,-0.9819,-0.9822,-0.9832,-0.9837,-0.9785,-0.9784,-0.9784,-0.9784,0,-1.0058,-1.0047,-1.005,-1.0021,-1.0009,-1.0005,-0.9971,-0.9963,-0.9942,-0.992,-0.9911,-0.9884,-0.9863,-0.9859,-0.9838,-0.985,-0.9843,-0.9823,-0.9799,-0.9831,-0.984,-0.9844,-0.9788,-0.9787,-0.9787,-0.9786,0,0,-1.0118,-1.0072,-1.0074,-1.0061,-1.0027,-1.0018,-1.0013,-0.9993,-0.9988,-0.9967,-0.9962,-0.9942,-0.9924,-0.991,-0.9887,-0.9888,-0.9914,-0.9868,-0.9866,-0.9878,-0.9926,-0.9942,-0.9947,-0.9898,-0.9898,-0.9899,-0.9929,0,-1.0147,-1.0136,-1.0106,-1.0104,-1.0095,-1.006,-1.0055,-1.0034,-1.0014,-1.0003,-0.998,-0.9967,-0.9944,-0.9936,-0.9935,-0.9911,-0.9923,-0.9908,-0.9893,-0.9893,-0.9902,-0.9951,-0.9967,-0.9997,-0.9932,-0.9932,-0.9933,0,-1.0178,-1.0161,-1.0158,-1.0127,-1.0122,-1.0118,-1.0098,-1.0088,-1.0064,-1.0049,-1.0035,-1.001,-1.0003,-0.998,-0.9971,-0.9962,-0.9954,-0.9941,-0.9942,-0.9939,-0.9915,-0.9951,-1.0005,-1.001,-0.9938,-0.9938,-0.9937,0,-1.0224,-1.02,-1.0196,-1.0186,-1.0149,-1.0147,-1.0132,-1.0107,-1.0097,-1.008,-1.0073,-1.0055,-1.0045,-1.0032,-1.0002,-0.9988,-0.9997,-0.9971,-0.9985,-0.9986,-0.9988,-0.9988,-1.0043,-0.9982,-0.9982,-0.9982,-0.9982,0,-1.0259,-1.026,-1.0217,-1.0214,-1.0214,-1.018,-1.018,-1.0161,-1.014,-1.0133,-1.0101,-1.0096,-1.0057,-1.0047,-1.0024,-1.0021,-1.0016,-1.0004,-0.9998,-1.0008,-1.001,-1.0003,-1.0,-0.9983,-0.9983,-0.9983,-0.9982,0,-1.0311,-1.0282,-1.0275,-1.0241,-1.0233,-1.0234,-1.0205,-1.0201,-1.018,-1.0172,-1.0168,-1.0134,-1.0121,-1.0091,-1.0069,-1.0054,-1.0056,-1.0045,-1.0065,-1.0061,-1.0077,-1.0076,-1.0129,-1.0134,-1.007,-1.0071,-1.0071,0,-1.0336,-1.0335,-1.0301,-1.0295,-1.0281,-1.0271,-1.0262,-1.0229,-1.022,-1.0194,-1.0194,-1.0179,-1.0165,-1.0146,-1.0119,-1.0103,-1.0091,-1.0111,-1.0089,-1.0099,-1.0093,-1.0094,-1.0094,-1.0116,-1.0117,-1.0118,-1.0118,0,-1.0383,-1.0369,-1.0356,-1.034,-1.0329,-1.0314,-1.0297,-1.0294,-1.0257,-1.0249,-1.0236,-1.0225,-1.0204,-1.019,-1.017,-1.0154,-1.0131,-1.0126,-1.0128,-1.0138,-1.015,-1.0145,-1.0079,-1.0125,-1.0124,-1.0123,-1.0123,-1.0123,-1.0422,-1.0421,-1.0398,-1.0385,-1.0369,-1.0355,-1.035,-1.0329,-1.0317,-1.0298,-1.0279,-1.0269,-1.0246,-1.0217,-1.0203,-1.0194,-1.0182,-1.0185,-1.0186,-1.0188,-1.0192,-1.0151,-1.019,-1.019,-1.019,-1.019,-1.0189,0,-1.0469,-1.0453,-1.0441,-1.042,-1.041,-1.0389,-1.037,-1.0364,-1.0355,-1.0336,-1.0323,-1.0309,-1.0295,-1.0268,-1.0252,-1.0251,-1.024,-1.0248,-1.0248,-1.0245,-1.0203,-1.0204,-1.0257,-1.0257,-1.0257,-1.0257,-1.0257,-1.0257,-1.0492,-1.0489,-1.0473,-1.0462,-1.0445,-1.0435,-1.0426,-1.0413,-1.0398,-1.0384,-1.0372,-1.0355,-1.0333,-1.0316,-1.0303,-1.0295,-1.0291,-1.0303,-1.0292,-1.0254,-1.0248,-1.0241,-1.0241,-1.0302,-1.0302,-1.0334,-1.0335,-1.0335]},{"header":{"parameterUnit":"m.s-1","parameterCategory":1,"la1":30.2991,"la2":30.254,"lo1":-89.0895,"lo2":-89.0444,"dy":0.0017,"dx":0.0017,"nx":28,"ny":28,"refTime":"2023-10-09T09:00:00:Z","depth":0,"parameterNumber":3,"parameterNumberName":"V-component_of_WINDS"},"data":[0,0,0,0,0,0,0,0,0,0,0,0,0,0,0,0,0,0,0,0,0,0,0,0,0,0,0,0,0,0,0,0,0,0,0,0,0,0,0,0,0,0,0,0,0,0,0,0,0,0,0,0,0,0,0,0,0,0,2.6689,2.6689,0,2.6639,2.6639,2.6638,2.667,2.6672,2.6673,2.6675,2.6616,2.6613,2.6611,0,0,0,0,0,0,0,0,0,0,0,0,0,2.6806,2.6804,2.6689,2.6689,2.6688,2.6639,2.6639,2.6638,2.667,2.6672,2.6674,2.6676,2.6617,2.6614,2.661,0,0,0,0,0,0,0,0,0,0,0,0,0,2.6755,2.6803,2.6689,2.6698,2.6699,2.6639,2.6639,2.6638,2.667,2.6672,2.6674,2.6676,2.6618,2.6614,2.661,2.6537,0,0,2.6596,2.6594,0,0,0,0,0,0,0,0,2.6758,2.6751,2.6698,2.6698,2.6698,2.6664,2.6658,2.6603,2.6669,2.668,2.6675,2.6678,2.663,2.6624,2.661,2.6534,2.6531,2.6596,2.6593,2.6591,2.659,0,0,0,0,0,0,0,2.6762,2.6753,2.6669,2.6697,2.6697,2.6703,2.6698,2.6648,2.6643,2.668,2.6682,2.6676,2.663,2.6614,2.6609,2.653,2.6596,2.6592,2.6589,2.6587,2.6391,2.6389,0,0,0,0,0,0,2.6765,2.6756,2.6671,2.6668,2.6734,2.6699,2.6694,2.6672,2.6643,2.6641,2.6674,2.6678,2.6621,2.6614,2.6607,2.6519,2.6591,2.6587,2.6584,2.6394,2.6391,2.6388,0,0,0,0,0,0,2.6768,2.6757,2.6673,2.6712,2.6702,2.6694,2.667,2.667,2.6654,2.6639,2.6638,2.6659,2.6622,2.6613,2.6554,2.6517,2.6585,2.6581,2.6397,2.6393,2.6389,2.6342,0,0,0,0,0,0,2.6771,2.6758,2.6732,2.6712,2.67,2.6623,2.6668,2.6667,2.6647,2.6651,2.6625,2.6622,2.6623,2.6561,2.655,2.6512,2.6577,2.64,2.6395,2.639,2.6347,2.6337,2.6328,0,0,0,0,0,2.6775,2.6719,2.673,2.672,2.6667,2.6621,2.6614,2.6618,2.6644,2.6616,2.6607,2.6623,2.6523,2.6554,2.6542,2.6503,2.6402,2.6396,2.6391,2.6351,2.6339,2.6329,0,0,0,0,0,0,2.6731,2.6716,2.6729,2.6665,2.6644,2.6626,2.6591,2.6605,2.6574,2.6579,2.6584,2.6577,2.6516,2.6504,2.6538,2.643,2.6467,2.6458,2.644,2.6429,2.642,2.6423,2.6574,0,0,0,0,0,2.6715,2.6681,2.6668,2.6613,2.6602,2.6599,2.6578,2.6584,2.6561,2.6552,2.6538,2.6514,2.6477,2.6453,2.6418,2.6346,2.6339,2.6312,2.6303,2.6296,2.6288,2.6248,2.6236,2.6369,2.6369,2.6369,0,0,2.6679,2.6667,2.6644,2.6604,2.6589,2.6551,2.6591,2.6549,2.6521,2.6545,2.6489,2.6478,2.6451,2.6385,2.6355,2.6373,2.625,2.6289,2.6283,2.6279,2.6241,2.6228,2.6217,2.6365,2.6366,2.6367,0,0,2.6595,2.6583,2.6535,2.652,2.6497,2.6495,2.6484,2.6464,2.6459,2.6403,2.6421,2.6386,2.6323,2.6303,2.6284,2.6194,2.6207,2.6182,2.6134,2.6095,2.6085,2.6075,2.6042,2.603,2.6175,2.6175,2.6175,0,2.6553,2.6499,2.6508,2.6466,2.6447,2.6471,2.6421,2.6405,2.6371,2.6356,2.6377,2.6299,2.6282,2.6212,2.619,2.6175,2.616,2.6184,2.6086,2.6077,2.6068,2.6036,2.6023,2.6172,2.6172,2.6173,2.6173,0,2.6448,2.641,2.6374,2.6343,2.6321,2.6275,2.6275,2.6251,2.6258,2.6254,2.6196,2.6178,2.614,2.6124,2.613,2.6054,2.6065,2.6086,2.6122,2.6052,2.6022,2.601,2.6168,2.6169,2.617,2.617,0,0,2.6332,2.6309,2.6296,2.6282,2.6259,2.6229,2.6184,2.615,2.6128,2.6104,2.6064,2.6011,2.6031,2.601,2.6014,2.598,2.5908,2.6005,2.6004,2.5986,2.5822,2.5805,2.5791,2.5918,2.5916,2.5914,2.5823,0,2.6246,2.617,2.6177,2.6104,2.6068,2.6091,2.6051,2.6032,2.6026,2.5994,2.5987,2.5949,2.5978,2.5966,2.5934,2.5924,2.5875,2.5931,2.5879,2.5877,2.5883,2.5775,2.5757,2.5673,2.5812,2.581,2.5808,0,2.6134,2.6109,2.6033,2.6016,2.6001,2.5966,2.5935,2.5904,2.5882,2.5881,2.5858,2.5868,2.5821,2.586,2.5794,2.5831,2.5811,2.5803,2.58,2.5793,2.5837,2.5764,2.5646,2.5632,2.579,2.5792,2.5793,0,2.6056,2.6003,2.595,2.5938,2.5918,2.5892,2.5882,2.5862,2.5841,2.5813,2.5799,2.5766,2.5746,2.5719,2.5719,2.5748,2.5651,2.5691,2.5646,2.5646,2.5623,2.5624,2.5498,2.5613,2.5613,2.5613,2.5614,0,2.5957,2.5909,2.5915,2.5882,2.5829,2.5838,2.5784,2.5776,2.5759,2.5724,2.5741,2.5707,2.571,2.5675,2.5675,2.5619,2.561,2.5606,2.5606,2.5604,2.5604,2.5589,2.5594,2.561,2.5611,2.5611,2.5612,0,2.586,2.5862,2.5806,2.5793,2.5788,2.5749,2.5736,2.5704,2.5701,2.5656,2.5646,2.564,2.56,2.5599,2.5552,2.5552,2.5483,2.5491,2.5491,2.5492,2.5447,2.5451,2.5305,2.5286,2.5415,2.5414,2.5413,0,2.5796,2.576,2.5743,2.5722,2.5711,2.5677,2.5656,2.5663,2.564,2.5613,2.5584,2.5547,2.5517,2.5451,2.5441,2.5406,2.5411,2.5363,2.5406,2.5404,2.5408,2.541,2.5406,2.5354,2.5352,2.5351,2.535,0,2.5682,2.5685,2.5656,2.5627,2.5602,2.5579,2.5558,2.5539,2.5543,2.5517,2.5478,2.5455,2.5408,2.537,2.5335,2.5322,2.5336,2.5337,2.5325,2.5321,2.5322,2.5319,2.5467,2.534,2.5341,2.5342,2.5342,2.5343,2.5598,2.5567,2.5551,2.5517,2.5503,2.5483,2.5452,2.5447,2.5415,2.5379,2.5385,2.5341,2.532,2.5275,2.526,2.5224,2.524,2.5222,2.5218,2.5213,2.5207,2.533,2.5218,2.5218,2.5218,2.5219,2.5219,0,2.5483,2.5475,2.5444,2.5415,2.5388,2.5407,2.5385,2.536,2.5322,2.5302,2.5274,2.5228,2.5191,2.518,2.5143,2.5117,2.5122,2.5107,2.5108,2.5104,2.5195,2.5209,2.5103,2.5103,2.5103,2.5103,2.5103,2.5103,2.5421,2.5369,2.537,2.5311,2.5302,2.5261,2.5246,2.5227,2.5212,2.5161,2.5132,2.5126,2.5108,2.5071,2.5038,2.5035,2.502,2.5002,2.5001,2.5086,2.5098,2.5109,2.5122,2.4999,2.4999,2.4913,2.4912,2.4912]}]]